www.pogodaiklimat.ru

Погода и климат >> Архив погоды >> Россия >> Якутия >> Витим


АРХИВ ПОГОДЫ в Витиме

Время (UTC), дата Ветер
(напр.,м/с)
 
Видим.   Явления Облачность Т
(С)
Тd
(С)
f
(%)
Тe
(С)
Тes
(С)
Комфортность P
(гПа)
Po
(гПа)
Тmin
(С)
Tmax
(С)
R
(мм)
R24
(мм)
S
(см)
03 18.03 С 3 20 км 1/0
[Ci fib]
-10.9 -14.5 75 -17 -13 1019.5 994.7
06 18.03 С 2 20 км 3/1 1000 м
[Cu hum Ci fib]
-6.4 -14.6 52 -10 -6 1019.7 995.3
09 18.03 С 3 20 км 3/3 1000 м
[Cu hum Ci fib]
-5.2 -15.6 44 -10 -10 1020.2 995.9
12 18.03 СЗ 1 20 км ясно -10.6 -17.9 55 -13 -13 1021.6 996.9 -4.5
15 18.03 штиль 0 20 км ясно -18.5 -20.4 85 -19 -19 1023.7 998.0
18 18.03 штиль 0 20 км ясно -22.8 -25.3 80 -23 -23 1024.6 998.4
21 18.03 штиль 0 20 км 3/0
[Ci fib]
-25.3 -27.2 84 -25 -25 1024.9 998.5
00 19.03 штиль 0 20 км 5/0
[Ac lent Ci fib]
-26.6 -28.4 85 -27 -26 1026.1 999.5 -26.7 81
03 19.03 штиль 0 20 км 8/0
[Ac lent Ci fib]
-16.6 -19.2 80 -17 -12 1025.1 999.5 -27.2
06 19.03 Ю 3 20 км 9/5 1000 м
[Sc Ci fib]
-8.7 -16.5 53 -14 -12 1022.7 997.9
09 19.03 СЗ 3 20 км 10/6 600 м
[Cb cap Cs]
-4.9 -15.0 45 -10 -10 1021.6 997.3
12 19.03 СЗ 1 20 км 10/6 600 м
[Cb cap Cs]
-7.0 -12.7 64 -9 -9 1022.9 998.3 -4.1
15 19.03 С 1 20 км слаб. ливневой снег 10/4 600 м
[Cb cap Ac lent Cs]
-11.4 -13.4 85 -14 -14 1023.7 998.7
18 19.03 штиль 0 20 км {ливн. осадки} 9/0
[Ac trans Ci fib]
-15.9 -17.8 85 -16 -16 1024.2 998.7
21 19.03 штиль 0 20 км 9/0
[Ac lent Ci fib]
-19.8 -21.7 85 -20 -20 1025.3 999.4
00 20.03 штиль 0 20 км слаб. снег 10/0
[Ac lent Cs]
-19.8 -21.7 85 -20 -19 1025.8 999.9 -20.2 0.4 81
03 20.03 ЮВ 1 20 км {снег} 4/3 1000 м
[Cu hum Ci fib]
-11.7 -16.1 70 -14 -10 1025.8 1000.7
06 20.03 Ю 1 20 км слаб. крупа {дождь} 9/5 600 м
[Cb cap Ci fib]
-5.5 -12.6 57 -7 -5 1024.8 1000.4
09 20.03 Ю 2 20 км 6/4 1000 м
[Cb cap Ci fib]
-4.4 -14.1 47 -8 -7 1024.5 1000.2
12 20.03 штиль 0 20 км 1/0
[Ci fib]
-11.0 -16.3 65 -11 -11 1025.3 1000.3 -3.3 0.0
15 20.03 штиль 0 20 км 6/0
[Ci fib]
-17.9 -19.8 85 -18 -18 1026.2 1000.5
18 20.03 штиль 0 20 км 8/0
[Ci fib]
-19.7 -21.6 85 -20 -20 1026.2 1000.3
21 20.03 штиль 0 20 км 6/0
[Ci fib]
-20.6 -22.5 85 -21 -21 1025.7 999.7
00 21.03 штиль 0 20 км слаб. снег 10/0
[Ac lent Cs]
-20.7 -22.6 85 -21 -20 1025.5 999.5 -21.5 0.2 80
03 21.03 штиль 0 20 км {снег} 3/0
[Ci fib]
-14.0 -16.7 80 -14 -7 1024.8 999.5
06 21.03 штиль 0 20 км в посл. час ливневой снег 8/4 600 м
[Cb cap Cs]
-5.7 -10.4 69 -6 -3 1023.4 999.0
09 21.03 ЮЗ 1 20 км {ливн. осадки} 6/3 600 м
[Cb cap Ac lent Ci fib]
-4.5 -8.8 72 -7 -6 1023.3 999.0
12 21.03 ЮЗ 1 20 км {ливн. осадки} 3/0
[Ci fib]
-9.3 -11.8 82 -12 -12 1024.9 1000.1 -2.7 0.2
15 21.03 штиль 0 20 км 3/0
[Ci fib]
-16.1 -17.4 90 -16 -16 1027.1 1001.6
18 21.03 штиль 0 20 км ясно -19.4 -21.3 85 -19 -19 1027.5 1001.7
21 21.03 штиль 0 20 км ясно -21.3 -23.8 80 -21 -21 1027.9 1001.9
00 22.03 ЮВ 2 20 км 4/0
[Ci fib]
-21.8 -23.6 85 -28 -27 1027.8 1001.7 -23.3 80
03 22.03 Ю 5 20 км 8/0
[Ac lent Ci fib]
-8.4 -12.1 75 -16 -14 1024.0 999.3
06 22.03 З 8-10
{14}
20 км слаб. ливневой снег {метель} 10/6 600 м
[Cb cap Cs]
-2.6 -10.5 55 -10 -10 1018.9 994.9
09 22.03 З 10-12
{14}
10 км слаб. ливневой снег {метель} 10/8 600 м
[Cb cap Cs]
-2.4 -8.8 61 -11 -11 1015.6 991.7
12 22.03 Ю 5
{13}
20 км позёмок {ливн. осадки} 10/6 600 м
[Cb cap Ac lent Cs]
-2.0 -8.6 61 -8 -8 1013.4 989.5 -2.0 0.5
15 22.03 ЮЗ 4
{12}
20 км слаб. ливневой снег {метель} 10/6 600 м
[Cb cap Cs]
-2.5 -7.3 70 -8 -8 1011.2 987.4
18 22.03 Ю 5 20 км {ливн. осадки, метель} 10/8 600 м
[Cb cap Ac lent Cs]
-1.7 -6.6 69 -8 -8 1007.5 983.8
21 22.03 Ю 2 20 км слаб. ливневой снег 10/5 600 м
[Cb cap Cs]
-3.1 -4.8 88 -7 -7 1003.4 979.7
00 23.03 Ю 3 10 км слаб. ливневой снег 10/8 600 м
[Cb cap Cs]
-2.8 -4.8 86 -8 -8 1001.5 977.9 -3.2 0.9 81
03 23.03 ЮЗ 2 4000 м слаб. ливневой снег 10/8 600 м
[Cb cap Ac As]
-1.1 -3.3 85 -5 -5 1000.6 977.2
06 23.03 З 4
{14}
20 км в посл. час ливневой снег 9/6 600 м
[Cb cap Ci fib]
+0.1 -3.9 74 -5 -4 1000.7 977.4
09 23.03 З 4
{14}
4000 м слаб. ливневой снег 9/8 600 м
[Cb cap Ci fib]
+0.2 -9.1 50 -5 -4 1001.2 977.8
12 23.03 СЗ 8-10
{14}
20 км в посл. час ливневой снег 9/8 600 м
[Cb cap Ci fib]
-4.7 -9.9 67 -13 -13 1004.7 980.9 +0.8 2
15 23.03 С 4
{16}
20 км {метель} 6/3 600 м
[Cb cap Ci fib]
-9.7 -18.2 50 -16 -16 1009.8 985.3
18 23.03 СЗ 2 20 км {метель} 4/0
[Ci fib]
-14.8 -21.8 55 -20 -20 1012.3 987.3
21 23.03 СЗ 2 20 км 4/0
[Ac lent Ci fib]
-21.0 -24.3 75 -27 -27 1014.4 988.7
00 24.03 СЗ 1 20 км слаб. снег 9/0
[Ac lent Cs]
-21.2 -24.5 75 -24 -23 1015.9 990.2 -22.4 0.2 81
03 24.03 З 3 20 км {снег} 8/4 1000 м
[Cu hum Ci fib]
-15.6 -21.6 60 -22 -20 1016.9 991.7
06 24.03 СЗ 3 20 км {снег} 5/4 1000 м
[Cu hum Ci fib]
-12.4 -20.7 50 -18 -16 1018.1 993.2
09 24.03 СЗ 3 20 км 4/4 600 м
[Cu hum]
-11.3 -19.7 50 -17 -17 1020.0 995.2
12 24.03 штиль 0 20 км 4/0
[Ac lent]
-15.2 -22.2 55 -15 -15 1022.4 997.2 -11.2 0.0
15 24.03 штиль 0 20 км 5/0
[Ci fib]
-19.1 -22.4 75 -19 -19 1024.1 998.3
18 24.03 штиль 0 20 км 3/0
[Ci fib]
-25.0 -27.4 80 -25 -25 1025.4 999.0
21 24.03 штиль 0 20 км 3/0
[Ci fib]
-27.9 -31.0 75 -28 -28 1026.6 999.9

 

Местоположение метеостанции Витим (Якутия, Россия): широта 59.45 долгота 112.50 высота над уровнем моря 190 м.

В архиве по умолчанию представлена погода в Витиме за последнюю неделю. Архивные данные за месяц целиком и за предыдущие месяцы, начиная с января 2011 года, Вы можете получить, выбрав интересующий диапазон дат из раскрывающегося списка и нажав кнопку "Ввод!".


*Определитесь, кто Вы:
робот инопланетянин человек

Внимание! Время в таблицах - всемирное. Для получения местного времени необходимо прибавить поправку, которая равна 9 ч.

Смотрите также архив погоды в соседних городах и на ближайших метеорологических станциях:

Погода в Комаке (Якутия, Россия) (102 км)
Погода в Маме (Иркутская область, Россия) (127 км)
Погода в Ленске (Якутия, Россия) (190 км)
Погода в Мамакане (Иркутская область, Россия) (202 км)
Погода в Перевозе (Иркутская область, Россия) (255 км)
Погода в Преображенке (Иркутская область, Россия) (261 км)
Погода в Дорожном (Якутия, Россия) (267 км)
Погода в Маче (Якутия, Россия) (291 км)
Погода в Ербогачене (Иркутская область, Россия) (320 км)
Погода в Киренске (Иркутская область, Россия) (321 км)

Пояснения к столбцам:

Ветер - указаны скорость ветра в м/с - средняя за 10 мин, порывы в срок и между сроками (в фигурных скобках) и направление, откуда дует ветер: С - северный, СВ - северо-восточный, В - восточный, ЮВ - юго-восточный, Ю - южный, ЮЗ - юго-западный, З - западный, СЗ - северо-западный.
Видимость - горизонтальная дальность видимости в метрах или километрах. При видимости от 1 до 10 км при отсутствии осадков обычно наблюдается дымка, при ухудшении видимости до 1 км и менее - туман. В сухую погоду видимость может ухудшаться дымом, пылью или мглою.
Явления - указаны атмосферные явления, наблюдавшиеся в срок или в последний час перед сроком; фигурными скобками обозначены явления, наблюдавшиеся между сроками (за 1-3 часа до срока); квадратными скобками обозначены град или гололедные отложения с указанием их диаметра в мм.
Облачность - указаны через наклонную черту общая и нижняя облачность в баллах и высота нижней границы облаков в метрах; квадратными скобками обозначены формы облаков: Ci - перистые, Cs - перисто-слоистые, Cc - перисто-кучевые, Ac - высококучевые, As - высокослоистые, Sc - слоисто-кучевые, Ns - слоисто-дождевые, Cu - кучевые, Cb - кучево-дождевые. Подробнее классификацию облаков см. в Атласе облаков (PDF).
T - Температура воздуха - температура, измеренная на высоте 2 м над землей.
Td - Температура точки росы - температура, при понижении до которой содержащийся в воздухе водяной пар достигнет насыщения.
f - Относительная влажность воздуха - влажноcть воздуха, измеренная на высоте 2 м над землей.
Te - Эффективная температура - температура, которую ощущает одетый по сезону человек в тени. Характеристика душности погоды. При расчете учитывается влияние влажности воздуха и скорости ветра на теплоощущения человека.
Tes - Эффективная температура на солнце - температура, которую ощущает человек, с поправкой на солнечный нагрев. Характеристика знойности погоды. Зависит от высоты солнца над горизонтом, облачности и скорости ветра. Ночью, в пасмурную погоду, а также при ветре 12 м/с и более поправка равна нулю.
P - Атмосферное давление - приведенное к уровню моря атмосферное давление.
Po - Атмосферное давление - измеренное на уровне метеостанции атмосферное давление.
Tmin - Минимальная температура - минимум температуры воздуха на высоте 2 м над землей.
Tmax - Максимальная температура - максимум температуры воздуха на высоте 2 м над землей.
R - Количество осадков - Количество выпавших осадков за период времени, мм. При наведении курсора мыши на число - период времени, за который выпало указанное количество осадков.
R24 - Количество осадков - Количество выпавших осадков за 24 часа, мм.
S - Снежный покров - Высота снежного покрова, см. При наведении курсора мыши на число - состояние снежного покрова и степень покрытия местности в баллах.